Погода Минеральные Воды

Погода Минеральные Воды : погода сейчас, прогноз погоды и архив. Всё, что Вы хотите узнать о погоде Минеральные Воды!

Поиск расширенной информации на нашем сайте:

Другие новости

Новости СМИ2

Главная страница сайта

Новости сайта

02.10.2013

Напоминаем, что на нашем новом сайте вы можете получить высокодетализированные прогнозы погоды по пунктам России, СНГ и мира (включающие важные для авиации метеовеличины, такие как направление и скорость ветра, видимость, явления погоды, количество и форма облачности, нижняя и верхняя граница облачности), а также ознакомиться с разнообразными материалами по авиационной метеорологии и подборкой полезных ссылок на эту тему.

Сайт Метеоцентр.Азия посвящён разработке технологий оптимизации авиаметеорологического обслуживания, включая проектирование и перспективное создание нескольких автоматизированных авиаметеорологических систем:
- система выпуска высокодетальных прогностических карт явлений погоды для нижнего воздушного пространства по России и ближнему зарубежью;
- система верификации прогнозов TAF (выпускаемых синоптиками официальных АМСГ РФ и ближнего зарубежья) и AUTOTAF (выпускаемых сайтом Метеоцентр.Азия) - выявление ошибок, онлайн-сопоставление с фактической погодой METAR, автоматическое внесение коррективов в прогнозы при резком отклонении фактической погоды от прогноза, подсчёт оправдываемости прогнозов по элементам и в целом;
- система обработки, анализа и отображения авиаметеорологической информации для применения провайдерами метеорологической информации.


Погода Минеральные Воды - сегодня

Время (UTC), дата Ветер
(°,м/с) 
Видим.   Явления Облачность Т
(°С)
Тd
(°С)
f(%) Тe
(°С)
Pmin
(гПа)
dP
(гПа)
Po
(мм)
O2
(г/м3)
Тmin Tmax R s Состояние
почвы
06 25.05.17 260 (З) 10 км    10/10 600 м 
[Sc]
+11.4 +8.1 80 +13  1020.6  -0.2  737  283           
09 25.05.17 260 (З) 10 км    10/10 600 м 
[Sc]
+13.1 +9.3 78 +15  1020.2  -0.2  737  282           
12 25.05.17 350 (С) 10 км    10/10 1000 м 
[Sc diur, vesp]
+14.8 +8.4 65 +16  1019.6  -0.3  737  280           
15 25.05.17 100 (В) 20000 м    4/0 средняя 
[Ac lent]
+15.5 +8.3 62 +17  1018  -0.5  736  279    +16.8       
18 25.05.17 050 (СВ) 10 км    4/0 средняя 
[Ac cast]
+11.1 +9.5 90 +13  1019.7  0.1  737  283           
21 25.05.17 070 (В) 4000 м  дымка  ясно 
+9 +8.1 94 +10  1019.7  -0.3  736  286           
00 26.05.17 250 (З) 1000 м  дымка  ясно 
+5.9 +5.2 95 +7  1019.7  -0.4  736  289           
03 26.05.17 230 (ЮЗ) н/о    н/о 
+6.4 +5.8 96 +7  1019.9  0.2  736  289  +5.2         
06 26.05.17 060 (СВ) 10 км  {туман}  ясно 
+15.4 +10.3 72 +18  1017.9  -0.7  736  279           
09 26.05.17 070 (В) 20000 м    6/6 1000 м 
[Cu med, cong]
+19.4 +9.6 53 +21  1016.3  -1  735  275           
12 26.05.17 070 (В) 20000 м    9/5 1000 м средняя, верхняя 
[Cu med, cong|Ac trans|Ci fib]
+21.9 +9.8 46 +23  1014.8  -1.2  734  272           
18 26.05.17 070 (В) 10 км    ясно 
+14.8 +10.8 77 +19  1014.7  0.1  733  278           
21 26.05.17 050 (СВ) 10 км    ясно 
+11.2 +10 92 +14  1014.4  -0.8  733  282           
06 27.05.17 080 (В) 20000 м    6/1 1000 м верхняя 
[Sc|Cs]
+21 +12 56 +25  1011.9  -1  732  271           
09 27.05.17 090 (В) 20000 м    8/0 средняя, верхняя 
[Ac trans|Ci fib]
+13.1 +7.7 70 +13  1010.7  -0.9  731  280           
12 27.05.17 070 (В) 20000 м    9/0 средняя 
[Ac trans]
+22.4 +10.2 46 +24  1011  0.2  731  270           
18 27.05.17 260 (З) 10 км    6/0 средняя 
[Ac trans]
+14.9 +11.1 78 +19  1012.6  0.8  732  277           
21 27.05.17 270 (З) 10 км    10/0 средняя 
[Ac trans]
+11.8 +10 89 +15  1013.6  0.6  732  281           
00 28.05.17 тихо ()   10 км    6/0 средняя 
[Ac trans]
+12 +10.2 89 +14  1014.5  0.8  733  281           
06 28.05.17 250 (З) 20000 м    6/0 средняя 
[Ac trans]
+20.5 +11.7 57 +24  1013.8  0.1  733  273           
09 28.05.17 250 (З) 20000 м    8/8 1000 м 
[Cu hum]
+23.5 +10.5 44 +26  1013  -0.4  733  270           
12 28.05.17 010 (С) 20000 м    8/8 600 м 
[Cu Sc]
+23.2 +13.3 54 +30  1013.4  0.4  733  270           
18 28.05.17 180 (Ю) 2{12}  10 км    ясно 
+15.1 +12.1 82 +20  1018  2.2  736  279           
21 28.05.17 250 (З) 10 км    5/0 средняя 
[Ac inh]
+12.4 +11.4 94 +17  1019.2  0.9  736  282           
00 29.05.17 260 (З) 10 км    8/8 1000 м 
[Sc]
+11.4 +10.3 93 +15  1019.9  0.6  737  283           
Время (UTC), дата Ветер
(°,м/с) 
Видим.   Явления Облачность Т
(°С)
Тd
(°С)
f(%) Тe
(°С)
Pmin
(гПа)
dP
(гПа)
Po
(мм)
O2
(г/м3)
Тmin Tmax R s Состояние
почвы

Для получения пояснительной информации подведите курсор к названию столбца.

ПОГОДА Минеральные Воды - архив

Всё, что Вы хотите узнать о погоде Минеральные Воды - удобно и подробно!

Выберите нужную дату (начиная с 1 января 2015* года) и нажмите кнопку "Найти".
Будут отображены архивные сводки погоды по пункту Минеральные Воды, начиная с указанной даты.


Отображать данные в формате CSV (для использования в таблицах Excel)


Внимание! Наш архив погоды предназначен исключительно для личного некоммерческого использования в познавательных целях. Если Вам необходимы официальные справки о состоянии погоды (для производственных, юридических, коммерческих и т.п. целей), обращайтесь в органы Росгидромета.

*Примечание: данная дата относится к архиву по метеостанциям СССР (Россия, СНГ, Балтия).
Архив по метеостанциям Зарубежной Европы и Азии (кроме Китая) хранится 10 дней, по другим регионам земного шара (Китай, Африка, Америка, Австралия, Океания) - 1 день.

Минеральные Воды - район местоположения метеостанции


Название, широта, долгота, высота метеостанции:
Минеральные Воды 44.2°ш. 43.1°д. 316 м над ур. моря [Российская Федерация]

Дополнительная информация

В oтличие oт бoльшинства пoгoдных сайтoв мы публикуем пoдрoбную метеoинфoрмацию в детальнoм прoфессиoнальнoм фoрмате.

Характеристики температуры и влажнoсти вoздуха измеряются на высoте 2 м в тени вдали oт зданий и деревьев.
Скoрoсть ветра измеряется на высoте 10 м (на урoвне рoста челoвека скoрoсть ветра ниже в 1.5-2 раза). Если метеoстанция нахoдится в гoрoде или в лесу, тo скoрoсть ветра занижена на 2-4 м/с пo сравнению с oткрытым местoм. Скoрoсть ветра над акватoриями крупных рек и oзёр, а также на вершинах хoлмoв на 2-5 м/с выше, чем в oбычных услoвиях.
Атмoсфернoе давление в разных тoчках местнoсти мoжет значительнo oтличаться oт давления на метеoстанции, в зависимoсти oт услoвий рельефа (при пoдъёме на 10 м давление пoнижается примернo на 1 мм рт.ст.).